Time,TemperatureF,DewpointF,PressureIn,WindDirection,WindDirectionDegrees,WindSpeedMPH,WindSpeedGustMPH,Humidity,HourlyPrecipIn,Conditions,Clouds,dailyrainin,SoftwareType,DateUTC
2013-06-15 00:02:00,70.0,67.0,-100.00,NW,315,1.0,4.0,89,-99.99,,,-99.99,,2013-06-15 05:02:00,
2013-06-15 00:12:00,70.0,67.0,-100.00,SW,235,1.0,3.0,89,-99.99,,,-99.99,,2013-06-15 05:12:00,
2013-06-15 00:22:00,70.0,67.0,-100.00,SW,235,1.0,3.0,89,-99.99,,,-99.99,,2013-06-15 05:22:00,
2013-06-15 00:34:00,69.0,67.0,-100.00,West,265,2.0,2.0,91,-99.99,,,-99.99,,2013-06-15 05:34:00,
2013-06-15 00:43:00,69.0,67.0,-100.00,WNW,295,1.0,2.0,92,-99.99,,,-99.99,,2013-06-15 05:43:00,
2013-06-15 00:52:00,69.0,66.0,-100.00,West,265,2.0,4.0,90,-99.99,,,-99.99,,2013-06-15 05:52:00,
2013-06-15 01:02:00,69.0,66.0,-100.00,West,265,2.0,4.0,90,-99.99,,,-99.99,,2013-06-15 06:02:00,
2013-06-15 01:12:00,70.0,66.0,-100.00,West,260,1.0,3.0,89,-99.99,,,-99.99,,2013-06-15 06:12:00,
2013-06-15 01:24:00,70.0,66.0,-100.00,West,260,1.0,3.0,89,-99.99,,,-99.99,,2013-06-15 06:24:00,
2013-06-15 01:33:00,70.0,66.0,-100.00,WSW,255,1.0,3.0,87,-99.99,,,-99.99,,2013-06-15 06:33:00,
2013-06-15 01:43:00,70.0,66.0,-100.00,WSW,255,0.0,4.0,86,-99.99,,,-99.99,,2013-06-15 06:43:00,
2013-06-15 01:53:00,68.0,66.0,-100.00,SW,225,1.0,2.0,94,-99.99,,,-99.99,,2013-06-15 06:53:00,
2013-06-15 02:01:00,68.0,66.0,-100.00,SW,225,1.0,2.0,94,-99.99,,,-99.99,,2013-06-15 07:01:00,
2013-06-15 02:11:00,69.0,65.0,-100.00,West,260,1.0,2.0,89,-99.99,,,-99.99,,2013-06-15 07:11:00,
2013-06-15 02:23:00,69.0,65.0,-100.00,West,260,1.0,2.0,89,-99.99,,,-99.99,,2013-06-15 07:23:00,
2013-06-15 02:33:00,70.0,64.0,-100.00,West,280,2.0,5.0,82,-99.99,,,-99.99,,2013-06-15 07:33:00,
2013-06-15 02:43:00,70.0,64.0,-100.00,WSW,255,2.0,8.0,81,-99.99,,,-99.99,,2013-06-15 07:43:00,
2013-06-15 02:53:00,70.0,64.0,-100.00,West,275,3.0,5.0,83,-99.99,,,-99.99,,2013-06-15 07:53:00,
2013-06-15 03:02:00,70.0,64.0,-100.00,West,275,3.0,5.0,83,-99.99,,,-99.99,,2013-06-15 08:02:00,
2013-06-15 03:11:00,70.0,64.0,-100.00,WNW,290,3.0,6.0,82,-99.99,,,-99.99,,2013-06-15 08:11:00,
2013-06-15 03:22:00,70.0,64.0,-100.00,WNW,290,3.0,6.0,82,-99.99,,,-99.99,,2013-06-15 08:22:00,
2013-06-15 03:33:00,70.0,64.0,-100.00,WNW,295,4.0,7.0,82,-99.99,,,-99.99,,2013-06-15 08:33:00,
2013-06-15 03:42:00,70.0,64.0,-100.00,WNW,300,5.0,9.0,82,-99.99,,,-99.99,,2013-06-15 08:42:00,
2013-06-15 03:53:00,70.0,63.0,-100.00,West,275,2.0,9.0,80,-99.99,,,-99.99,,2013-06-15 08:53:00,
2013-06-15 04:02:00,70.0,63.0,-100.00,West,275,2.0,9.0,80,-99.99,,,-99.99,,2013-06-15 09:02:00,
2013-06-15 04:12:00,70.0,63.0,-100.00,West,275,1.0,5.0,79,-99.99,,,-99.99,,2013-06-15 09:12:00,
2013-06-15 04:22:00,70.0,63.0,-100.00,West,275,1.0,5.0,79,-99.99,,,-99.99,,2013-06-15 09:22:00,
2013-06-15 04:33:00,69.0,62.0,-100.00,West,265,3.0,7.0,79,-99.99,,,-99.99,,2013-06-15 09:33:00,
2013-06-15 04:43:00,69.0,62.0,-100.00,West,265,3.0,7.0,78,-99.99,,,-99.99,,2013-06-15 09:43:00,
2013-06-15 04:52:00,69.0,62.0,-100.00,WNW,285,4.0,8.0,80,-99.99,,,-99.99,,2013-06-15 09:52:00,
2013-06-15 05:02:00,69.0,62.0,-100.00,WNW,285,4.0,8.0,80,-99.99,,,-99.99,,2013-06-15 10:02:00,
2013-06-15 05:11:00,69.0,62.0,-100.00,West,280,3.0,7.0,78,-99.99,,,-99.99,,2013-06-15 10:11:00,
2013-06-15 05:23:00,69.0,62.0,-100.00,West,280,3.0,7.0,78,-99.99,,,-99.99,,2013-06-15 10:23:00,
2013-06-15 05:33:00,69.0,62.0,-100.00,West,275,3.0,7.0,77,-99.99,,,-99.99,,2013-06-15 10:33:00,
2013-06-15 05:44:00,69.0,61.0,-100.00,WNW,285,3.0,7.0,77,-99.99,,,-99.99,,2013-06-15 10:44:00,
2013-06-15 05:53:00,69.0,61.0,-100.00,SW,235,3.0,7.0,76,-99.99,,,-99.99,,2013-06-15 10:53:00,
2013-06-15 06:02:00,69.0,61.0,-100.00,SW,235,3.0,7.0,76,-99.99,,,-99.99,,2013-06-15 11:02:00,
2013-06-15 06:11:00,69.0,62.0,-100.00,West,280,2.0,4.0,79,-99.99,,,-99.99,,2013-06-15 11:11:00,
2013-06-15 06:22:00,69.0,62.0,-100.00,West,280,2.0,4.0,79,-99.99,,,-99.99,,2013-06-15 11:22:00,
2013-06-15 06:33:00,69.0,62.0,-100.00,NW,320,9.0,26.0,80,-99.99,,,-99.99,,2013-06-15 11:33:00,
2013-06-15 06:43:00,70.0,62.0,-100.00,South,175,6.0,17.0,75,-99.99,,,-99.99,,2013-06-15 11:43:00,
2013-06-15 06:53:00,71.0,61.0,-100.00,ESE,115,4.0,9.0,73,-99.99,,,-99.99,,2013-06-15 11:53:00,
2013-06-15 07:01:00,71.0,61.0,-100.00,ESE,115,4.0,9.0,73,-99.99,,,-99.99,,2013-06-15 12:01:00,
2013-06-15 07:12:00,70.0,62.0,-100.00,NW,320,2.0,9.0,77,-99.99,,,-99.99,,2013-06-15 12:12:00,
2013-06-15 07:22:00,70.0,62.0,-100.00,WSW,255,4.0,7.0,77,-99.99,,,-99.99,,2013-06-15 12:22:00,
2013-06-15 07:33:00,70.0,62.0,-100.00,WSW,255,4.0,7.0,77,-99.99,,,-99.99,,2013-06-15 12:33:00,
2013-06-15 07:43:00,70.0,62.0,-100.00,West,265,4.0,7.0,78,-99.99,,,-99.99,,2013-06-15 12:43:00,
2013-06-15 07:52:00,71.0,63.0,-100.00,West,280,4.0,7.0,77,-99.99,,,-99.99,,2013-06-15 12:52:00,
2013-06-15 08:02:00,71.0,63.0,-100.00,West,280,4.0,7.0,77,-99.99,,,-99.99,,2013-06-15 13:02:00,
2013-06-15 08:11:00,71.0,63.0,-100.00,West,275,6.0,10.0,76,-99.99,,,-99.99,,2013-06-15 13:11:00,
2013-06-15 08:22:00,71.0,63.0,-100.00,West,275,6.0,10.0,76,-99.99,,,-99.99,,2013-06-15 13:22:00,
2013-06-15 08:32:00,71.0,63.0,-100.00,West,275,5.0,11.0,75,-99.99,,,-99.99,,2013-06-15 13:32:00,
2013-06-15 08:43:00,71.0,63.0,-100.00,West,270,4.0,9.0,76,-99.99,,,-99.99,,2013-06-15 13:43:00,
2013-06-15 08:53:00,71.0,63.0,-100.00,West,275,4.0,8.0,75,-99.99,,,-99.99,,2013-06-15 13:53:00,
2013-06-15 09:01:00,71.0,63.0,-100.00,West,275,4.0,8.0,75,-99.99,,,-99.99,,2013-06-15 14:01:00,
2013-06-15 09:12:00,72.0,63.0,-100.00,WSW,245,3.0,8.0,74,-99.99,,,-99.99,,2013-06-15 14:12:00,
2013-06-15 09:22:00,72.0,63.0,-100.00,WSW,245,3.0,8.0,74,-99.99,,,-99.99,,2013-06-15 14:22:00,
2013-06-15 09:34:00,74.0,63.0,-100.00,WNW,295,2.0,5.0,69,-99.99,,,-99.99,,2013-06-15 14:34:00,
2013-06-15 09:43:00,73.0,63.0,-100.00,NW,305,1.0,3.0,71,-99.99,,,-99.99,,2013-06-15 14:43:00,
2013-06-15 09:53:00,71.0,64.0,-100.00,WNW,300,3.0,5.0,78,-99.99,,,-99.99,,2013-06-15 14:53:00,
2013-06-15 10:02:00,71.0,64.0,-100.00,WNW,300,3.0,5.0,78,-99.99,,,-99.99,,2013-06-15 15:02:00,
2013-06-15 10:11:00,71.0,65.0,-100.00,WNW,300,2.0,7.0,80,-99.99,,,-99.99,,2013-06-15 15:11:00,
2013-06-15 10:22:00,71.0,65.0,-100.00,WNW,300,2.0,7.0,80,-99.99,,,-99.99,,2013-06-15 15:22:00,
2013-06-15 10:33:00,69.0,65.0,-100.00,West,275,6.0,9.0,89,-99.99,,,-99.99,,2013-06-15 15:33:00,
2013-06-15 10:43:00,68.0,65.0,-100.00,West,265,5.0,10.0,90,-99.99,,,-99.99,,2013-06-15 15:43:00,
2013-06-15 10:53:00,68.0,66.0,-100.00,WNW,295,4.0,13.0,95,-99.99,,,-99.99,,2013-06-15 15:53:00,
2013-06-15 11:01:00,68.0,66.0,-100.00,WNW,295,4.0,13.0,95,-99.99,,,-99.99,,2013-06-15 16:01:00,
2013-06-15 11:11:00,68.0,67.0,-100.00,WSW,255,6.0,10.0,95,-99.99,,,-99.99,,2013-06-15 16:11:00,
2013-06-15 11:22:00,69.0,67.0,-100.00,NW,305,3.0,9.0,92,-99.99,,,-99.99,,2013-06-15 16:22:00,
2013-06-15 11:33:00,69.0,67.0,-100.00,NW,305,3.0,9.0,92,-99.99,,,-99.99,,2013-06-15 16:33:00,
2013-06-15 11:43:00,70.0,66.0,-100.00,WSW,255,2.0,9.0,87,-99.99,,,-99.99,,2013-06-15 16:43:00,
2013-06-15 11:53:00,71.0,66.0,-100.00,WNW,300,3.0,9.0,85,-99.99,,,-99.99,,2013-06-15 16:53:00,
2013-06-15 12:02:00,71.0,66.0,-100.00,WNW,300,3.0,9.0,85,-99.99,,,-99.99,,2013-06-15 17:02:00,
2013-06-15 12:12:00,72.0,67.0,-100.00,South,170,2.0,7.0,84,-99.99,,,-99.99,,2013-06-15 17:12:00,
2013-06-15 12:22:00,72.0,67.0,-100.00,South,170,2.0,7.0,84,-99.99,,,-99.99,,2013-06-15 17:22:00,
2013-06-15 12:32:00,73.0,68.0,-100.00,NW,310,5.0,8.0,82,-99.99,,,-99.99,,2013-06-15 17:32:00,
2013-06-15 12:43:00,75.0,67.0,-100.00,WNW,295,3.0,8.0,77,-99.99,,,-99.99,,2013-06-15 17:43:00,
2013-06-15 12:52:00,76.0,68.0,-100.00,WNW,300,5.0,10.0,75,-99.99,,,-99.99,,2013-06-15 17:52:00,
2013-06-15 13:01:00,76.0,68.0,-100.00,WNW,300,5.0,10.0,75,-99.99,,,-99.99,,2013-06-15 18:01:00,
2013-06-15 13:12:00,77.0,68.0,-100.00,NW,305,2.0,7.0,74,-99.99,,,-99.99,,2013-06-15 18:12:00,
2013-06-15 13:22:00,77.0,68.0,-100.00,NW,305,2.0,7.0,74,-99.99,,,-99.99,,2013-06-15 18:22:00,
2013-06-15 13:32:00,78.0,70.0,-100.00,WSW,240,2.0,4.0,76,-99.99,,,-99.99,,2013-06-15 18:32:00,
2013-06-15 13:43:00,80.0,71.0,-100.00,WNW,295,5.0,9.0,74,-99.99,,,-99.99,,2013-06-15 18:43:00,
2013-06-15 13:53:00,81.0,71.0,-100.00,NW,305,5.0,14.0,72,-99.99,,,-99.99,,2013-06-15 18:53:00,
2013-06-15 14:01:00,81.0,71.0,-100.00,NW,305,5.0,14.0,72,-99.99,,,-99.99,,2013-06-15 19:01:00,
2013-06-15 14:11:00,81.0,70.0,-100.00,WNW,300,7.0,13.0,70,-99.99,,,-99.99,,2013-06-15 19:11:00,
2013-06-15 14:22:00,81.0,70.0,-100.00,WNW,300,7.0,13.0,70,-99.99,,,-99.99,,2013-06-15 19:22:00,
2013-06-15 14:33:00,80.0,71.0,-100.00,WNW,300,4.0,13.0,75,-99.99,,,-99.99,,2013-06-15 19:33:00,
2013-06-15 14:43:00,80.0,70.0,-100.00,WNW,295,7.0,13.0,73,-99.99,,,-99.99,,2013-06-15 19:43:00,
2013-06-15 14:52:00,79.0,70.0,-100.00,WNW,290,5.0,8.0,75,-99.99,,,-99.99,,2013-06-15 19:52:00,
2013-06-15 15:02:00,79.0,70.0,-100.00,WNW,290,5.0,8.0,75,-99.99,,,-99.99,,2013-06-15 20:02:00,
2013-06-15 15:11:00,78.0,69.0,-100.00,WNW,295,6.0,12.0,73,-99.99,,,-99.99,,2013-06-15 20:11:00,
2013-06-15 15:22:00,78.0,69.0,-100.00,WNW,295,6.0,12.0,73,-99.99,,,-99.99,,2013-06-15 20:22:00,
2013-06-15 15:33:00,78.0,69.0,-100.00,West,260,4.0,12.0,73,-99.99,,,-99.99,,2013-06-15 20:33:00,
2013-06-15 15:43:00,78.0,68.0,-100.00,WNW,290,3.0,7.0,72,-99.99,,,-99.99,,2013-06-15 20:43:00,
2013-06-15 15:53:00,80.0,68.0,-100.00,West,270,6.0,10.0,66,-99.99,,,-99.99,,2013-06-15 20:53:00,
2013-06-15 16:01:00,80.0,68.0,-100.00,West,270,6.0,10.0,66,-99.99,,,-99.99,,2013-06-15 21:01:00,
2013-06-15 16:12:00,80.0,68.0,-100.00,WNW,285,5.0,12.0,68,-99.99,,,-99.99,,2013-06-15 21:12:00,
2013-06-15 16:22:00,80.0,68.0,-100.00,WNW,285,5.0,12.0,68,-99.99,,,-99.99,,2013-06-15 21:22:00,
2013-06-15 16:33:00,80.0,70.0,-100.00,WSW,255,3.0,9.0,70,-99.99,,,-99.99,,2013-06-15 21:33:00,
2013-06-15 16:42:00,80.0,69.0,-100.00,South,185,7.0,10.0,70,-99.99,,,-99.99,,2013-06-15 21:42:00,
2013-06-15 16:52:00,78.0,70.0,-100.00,West,280,5.0,9.0,76,-99.99,,,-99.99,,2013-06-15 21:52:00,
2013-06-15 17:01:00,78.0,70.0,-100.00,West,280,5.0,9.0,76,-99.99,,,-99.99,,2013-06-15 22:01:00,
2013-06-15 17:11:00,78.0,70.0,-100.00,WNW,290,4.0,10.0,78,-99.99,,,-99.99,,2013-06-15 22:11:00,
2013-06-15 17:22:00,77.0,70.0,-100.00,WNW,290,4.0,8.0,78,-99.99,,,-99.99,,2013-06-15 22:22:00,
2013-06-15 17:33:00,77.0,70.0,-100.00,WNW,290,4.0,8.0,78,-99.99,,,-99.99,,2013-06-15 22:33:00,
2013-06-15 17:42:00,77.0,69.0,-100.00,WNW,290,3.0,7.0,78,-99.99,,,-99.99,,2013-06-15 22:42:00,
2013-06-15 17:53:00,76.0,70.0,-100.00,WNW,290,2.0,4.0,80,-99.99,,,-99.99,,2013-06-15 22:53:00,
2013-06-15 18:02:00,76.0,70.0,-100.00,WNW,290,2.0,4.0,80,-99.99,,,-99.99,,2013-06-15 23:02:00,
2013-06-15 18:12:00,76.0,69.0,-100.00,WNW,300,2.0,5.0,80,-99.99,,,-99.99,,2013-06-15 23:12:00,
2013-06-15 18:22:00,76.0,69.0,-100.00,WNW,300,2.0,5.0,80,-99.99,,,-99.99,,2013-06-15 23:22:00,
2013-06-15 18:33:00,74.0,71.0,-100.00,WSW,255,3.0,5.0,89,-99.99,,,-99.99,,2013-06-15 23:33:00,
2013-06-15 18:42:00,74.0,71.0,-100.00,East,90,1.0,5.0,92,-99.99,,,-99.99,,2013-06-15 23:42:00,
2013-06-15 18:53:00,73.0,72.0,-100.00,WNW,295,2.0,3.0,95,-99.99,,,-99.99,,2013-06-15 23:53:00,
2013-06-15 19:01:00,73.0,72.0,-100.00,WNW,295,2.0,3.0,95,-99.99,,,-99.99,,2013-06-16 00:01:00,
2013-06-15 19:11:00,73.0,71.0,-100.00,NW,315,2.0,4.0,95,-99.99,,,-99.99,,2013-06-16 00:11:00,
2013-06-15 19:22:00,72.0,71.0,-100.00,South,170,2.0,4.0,96,-99.99,,,-99.99,,2013-06-16 00:22:00,
2013-06-15 19:34:00,72.0,71.0,-100.00,South,170,2.0,4.0,96,-99.99,,,-99.99,,2013-06-16 00:34:00,
2013-06-15 19:43:00,72.0,71.0,-100.00,NW,315,1.0,6.0,97,-99.99,,,-99.99,,2013-06-16 00:43:00,
2013-06-15 19:52:00,72.0,71.0,-100.00,NW,315,4.0,4.0,98,-99.99,,,-99.99,,2013-06-16 00:52:00,
2013-06-15 20:01:00,72.0,71.0,-100.00,NW,315,4.0,4.0,98,-99.99,,,-99.99,,2013-06-16 01:01:00,
2013-06-15 20:11:00,72.0,71.0,-100.00,NW,315,4.0,7.0,98,-99.99,,,-99.99,,2013-06-16 01:11:00,
2013-06-15 20:22:00,72.0,71.0,-100.00,NW,315,4.0,7.0,98,-99.99,,,-99.99,,2013-06-16 01:22:00,
2013-06-15 20:33:00,72.0,71.0,-100.00,NW,315,6.0,9.0,97,-99.99,,,-99.99,,2013-06-16 01:33:00,
2013-06-15 20:42:00,71.0,71.0,-100.00,NW,320,3.0,7.0,97,-99.99,,,-99.99,,2013-06-16 01:42:00,
2013-06-15 20:53:00,71.0,70.0,-100.00,NW,315,6.0,7.0,98,-99.99,,,-99.99,,2013-06-16 01:53:00,
2013-06-15 21:02:00,71.0,70.0,-100.00,NW,315,6.0,7.0,98,-99.99,,,-99.99,,2013-06-16 02:02:00,
2013-06-15 21:12:00,71.0,70.0,-100.00,NW,315,4.0,9.0,97,-99.99,,,-99.99,,2013-06-16 02:12:00,
2013-06-15 21:22:00,71.0,70.0,-100.00,NW,315,4.0,9.0,97,-99.99,,,-99.99,,2013-06-16 02:22:00,
2013-06-15 21:33:00,70.0,69.0,-100.00,NW,310,5.0,7.0,97,-99.99,,,-99.99,,2013-06-16 02:33:00,
2013-06-15 21:43:00,70.0,69.0,-100.00,NW,315,2.0,5.0,97,-99.99,,,-99.99,,2013-06-16 02:43:00,
2013-06-15 21:53:00,70.0,69.0,-100.00,SSW,200,1.0,6.0,96,-99.99,,,-99.99,,2013-06-16 02:53:00,
2013-06-15 22:02:00,70.0,69.0,-100.00,SSW,200,1.0,6.0,96,-99.99,,,-99.99,,2013-06-16 03:02:00,
2013-06-15 22:12:00,70.0,69.0,-100.00,WNW,285,2.0,4.0,97,-99.99,,,-99.99,,2013-06-16 03:12:00,
2013-06-15 22:22:00,70.0,69.0,-100.00,WNW,285,2.0,4.0,97,-99.99,,,-99.99,,2013-06-16 03:22:00,
2013-06-15 22:33:00,69.0,69.0,-100.00,WNW,285,3.0,5.0,97,-99.99,,,-99.99,,2013-06-16 03:33:00,
2013-06-15 22:43:00,69.0,68.0,-100.00,WNW,290,2.0,4.0,97,-99.99,,,-99.99,,2013-06-16 03:43:00,
2013-06-15 22:53:00,69.0,68.0,-100.00,WSW,255,2.0,6.0,98,-99.99,,,-99.99,,2013-06-16 03:53:00,
2013-06-15 23:02:00,69.0,68.0,-100.00,WSW,255,2.0,6.0,98,-99.99,,,-99.99,,2013-06-16 04:02:00,
2013-06-15 23:12:00,69.0,68.0,-100.00,West,260,3.0,5.0,98,-99.99,,,-99.99,,2013-06-16 04:12:00,
2013-06-15 23:23:00,69.0,68.0,-100.00,West,260,3.0,5.0,98,-99.99,,,-99.99,,2013-06-16 04:23:00,
2013-06-15 23:33:00,69.0,68.0,-100.00,West,280,2.0,5.0,97,-99.99,,,-99.99,,2013-06-16 04:33:00,
2013-06-15 23:42:00,69.0,68.0,-100.00,WNW,300,3.0,5.0,97,-99.99,,,-99.99,,2013-06-16 04:42:00,
2013-06-15 23:53:00,69.0,68.0,-100.00,WNW,290,4.0,9.0,97,-99.99,,,-99.99,,2013-06-16 04:53:00,